time_stamp(utc),avg(mph),gust(mph),direction(deg),12m_air_temp(f),sonic_u(cm/s),sonic_v(cm/s),sonic_w(cm/s),pressure,2m_air_temp(f),pyranometer(W/m^2)
"2019-07-09 00:00:00+00",8.9,9.9,,72,383,126,24,1015.47,71.5,0
"2019-07-09 00:05:00+00",9.0,10.0,,72,375,144,12,1015.52,71.3,0
"2019-07-09 00:10:00+00",8.4,9.4,,71.9,322,174,20,1015.62,71.1,0
"2019-07-09 00:15:00+00",7.6,7.6,,71.7,282,176,17,1015.7,70.9,0
"2019-07-09 00:20:00+00",7.8,8.8,,71.6,289,181,18,1015.67,70.6,0
"2019-07-09 00:25:00+00",7.9,8.9,,71.6,287,185,8,1015.7,70.3,0
"2019-07-09 00:30:00+00",7.1,8.1,,71.8,272,146,17,1015.71,70.2,0
"2019-07-09 00:35:00+00",6.6,7.6,,71.5,246,143,11,1015.79,70,0
"2019-07-09 00:40:00+00",6.7,7.7,,71.4,255,138,14,1015.66,69.7,0
"2019-07-09 00:45:00+00",7.8,8.8,,71.4,324,126,12,1015.59,69.4,0
"2019-07-09 00:50:00+00",7.6,8.6,,71.3,308,133,11,1015.54,69.2,0
"2019-07-09 00:55:00+00",7.3,8.3,,71.1,279,160,16,1015.61,69.1,0
"2019-07-09 01:00:00+00",7.9,8.9,,71.2,287,191,26,1015.56,68.9,0
"2019-07-09 01:05:00+00",8.6,9.6,,71.2,312,208,15,1015.66,68.8,0
"2019-07-09 01:10:00+00",7.5,7.5,,71.3,285,163,18,1015.59,68.9,0
"2019-07-09 01:15:00+00",6.4,7.4,,71.1,254,109,8,1015.61,68.9,0
"2019-07-09 01:20:00+00",6.6,7.6,,71,275,107,7,1015.6,68.8,0
"2019-07-09 01:25:00+00",7.1,8.1,,71.2,283,126,5,1015.61,68.6,0
"2019-07-09 01:30:00+00",6.7,7.7,,71.1,271,117,8,1015.66,68.6,0
"2019-07-09 01:35:00+00",6.8,7.8,,71.2,288,99,15,1015.58,68.5,0
"2019-07-09 01:40:00+00",7.1,7.1,,71.1,291,118,8,1015.68,68.4,0
"2019-07-09 01:45:00+00",6.9,7.9,,71.4,295,100,16,1015.73,68.3,0
"2019-07-09 01:50:00+00",7.1,8.1,,71.3,300,111,10,1015.69,68.2,0
"2019-07-09 01:55:00+00",7.4,8.4,,71.3,294,135,10,1015.75,68.1,0
"2019-07-09 02:00:00+00",7.6,8.6,,71.2,293,158,15,1015.8,68.1,0
"2019-07-09 02:05:00+00",7.3,8.3,,71.2,282,144,19,1015.79,68.1,0
"2019-07-09 02:10:00+00",7.3,8.3,,71.2,273,164,19,1015.9,68.1,0
"2019-07-09 02:15:00+00",6.0,7.0,,70.9,228,128,16,1015.86,68,0
"2019-07-09 02:20:00+00",6.2,7.2,,71.1,265,84,16,1015.98,68,0
"2019-07-09 02:25:00+00",6.7,6.7,,71.3,292,31,18,1015.93,67.9,0
"2019-07-09 02:30:00+00",7.3,8.3,,71.1,319,50,19,1015.82,68,0
"2019-07-09 02:35:00+00",7.3,8.3,,71.4,319,32,24,1015.78,67.9,0
"2019-07-09 02:40:00+00",6.4,6.4,,71.2,281,36,13,1015.81,67.9,0
"2019-07-09 02:45:00+00",5.2,5.2,,71.1,221,34,16,1015.8,67.9,0
"2019-07-09 02:50:00+00",5.3,5.3,,71.1,229,8,16,1015.77,67.8,0
"2019-07-09 02:55:00+00",5.1,6.1,,71.1,218,41,13,1015.88,67.8,0
"2019-07-09 03:00:00+00",5.3,5.3,,71.1,225,40,14,1015.98,67.8,0
"2019-07-09 03:05:00+00",5.4,5.4,,71.2,232,31,13,1015.87,67.8,0
"2019-07-09 03:10:00+00",4.8,5.8,,71,207,12,11,1015.81,67.7,0
"2019-07-09 03:15:00+00",4.9,4.9,,71.2,210,25,13,1015.84,67.6,0
"2019-07-09 03:20:00+00",3.8,3.8,,71.1,163,18,13,1015.83,67.6,0
"2019-07-09 03:25:00+00",4.8,4.8,,71.1,208,24,11,1015.78,67.5,0
"2019-07-09 03:30:00+00",4.9,4.9,,71.1,209,24,10,1015.73,67.4,0
"2019-07-09 03:35:00+00",5.5,6.5,,71.2,240,30,17,1015.71,67.3,0
"2019-07-09 03:40:00+00",5.5,6.5,,71.3,238,33,15,1015.75,67.3,0
"2019-07-09 03:45:00+00",5.2,5.2,,71.2,221,17,11,1015.84,67.2,0
"2019-07-09 03:50:00+00",5.8,5.8,,71.3,252,7,14,1015.82,67.2,0
"2019-07-09 03:55:00+00",5.6,6.6,,71.3,243,-14,15,1015.8,67.3,0
"2019-07-09 04:00:00+00",5.4,5.4,,71.3,233,-6,19,1015.77,67.3,0
"2019-07-09 04:05:00+00",5.2,5.2,,71.3,219,-39,9,1015.78,67.3,0
"2019-07-09 04:10:00+00",4.9,4.9,,71.1,211,-19,8,1015.79,67.3,0
"2019-07-09 04:15:00+00",5.1,6.1,,71.3,219,-20,17,1015.77,67.3,0
"2019-07-09 04:20:00+00",4.8,4.8,,71.2,206,-32,9,1015.69,67.3,0
"2019-07-09 04:25:00+00",5.0,6.0,,71.3,213,-53,8,1015.67,67.3,0
"2019-07-09 04:30:00+00",5.3,5.3,,71.4,220,-79,2,1015.74,67.4,0
"2019-07-09 04:35:00+00",5.2,5.2,,71.5,218,-55,9,1015.69,67.5,0
"2019-07-09 04:40:00+00",4.9,4.9,,71.5,203,-49,9,1015.8,67.5,0
"2019-07-09 04:45:00+00",4.4,4.4,,71.5,182,-50,4,1015.74,67.4,0
"2019-07-09 04:50:00+00",4.5,4.5,,71.3,185,-61,4,1015.77,67.4,0
"2019-07-09 04:55:00+00",4.2,5.2,,71.4,172,-61,2,1015.84,67.3,0
"2019-07-09 05:00:00+00",3.7,4.7,,71.4,157,-35,8,1015.9,67.3,0
"2019-07-09 05:05:00+00",2.9,2.9,,71.3,124,-24,4,1015.84,67.2,0
"2019-07-09 05:10:00+00",2.5,2.5,,71.4,107,-18,5,1015.8,67.2,0
"2019-07-09 05:15:00+00",2.5,2.5,,71.4,106,-13,4,1015.79,67.2,0
"2019-07-09 05:20:00+00",2.4,2.4,,71.4,101,-17,0,1015.83,67.3,0
"2019-07-09 05:25:00+00",2.2,2.2,,71.4,96,-11,2,1015.88,67.6,0
"2019-07-09 05:30:00+00",2.1,2.1,,71.4,96,-13,3,1015.79,67.7,0
"2019-07-09 05:35:00+00",0.0,0.0,,71.3,49,11,5,1015.85,67.8,0
"2019-07-09 05:40:00+00",0.0,0.0,,71.2,26,5,4,1015.83,67.7,0
"2019-07-09 05:45:00+00",0.0,0.0,,71.1,33,23,2,1015.86,67.9,0
"2019-07-09 05:50:00+00",0.0,0.0,,71,21,20,3,1015.85,68,0
"2019-07-09 05:55:00+00",0.0,0.0,,70.9,23,20,1,1015.87,68.1,0
"2019-07-09 06:00:00+00",0.0,0.0,,70.9,24,53,-2,1015.84,68,0
"2019-07-09 06:05:00+00",0.0,0.0,,70.8,-20,57,2,1015.81,68.2,0
"2019-07-09 06:10:00+00",0.0,0.0,,70.6,-25,68,1,1015.81,68.3,0
"2019-07-09 06:15:00+00",0.0,0.0,,70.3,-50,66,2,1015.69,68.2,0
"2019-07-09 06:20:00+00",0.0,0.0,,70.1,-69,100,1,1015.63,68.1,0
"2019-07-09 06:25:00+00",0.0,0.0,,70,-68,108,1,1015.57,67.9,0
"2019-07-09 06:30:00+00",0.0,0.0,,70.1,-71,78,1,1015.58,67.8,0
"2019-07-09 06:35:00+00",0.0,0.0,,70.2,-59,46,-1,1015.55,67.6,0
"2019-07-09 06:40:00+00",0.0,0.0,,70.3,-55,24,1,1015.6,67.7,0
"2019-07-09 06:45:00+00",0.0,0.0,,70.3,-83,47,4,1015.55,67.6,0
"2019-07-09 06:50:00+00",0.0,0.0,,70.1,-87,55,3,1015.6,67.6,0
"2019-07-09 06:55:00+00",0.0,0.0,,70.2,-65,41,1,1015.57,67.5,0
"2019-07-09 07:00:00+00",0.0,0.0,,70.2,-97,46,5,1015.56,67.4,0
"2019-07-09 07:05:00+00",3.0,3.0,,70.2,-127,23,13,1015.53,67.3,0
"2019-07-09 07:10:00+00",3.5,3.5,,70.3,-155,14,18,1015.49,67.3,0
"2019-07-09 07:15:00+00",3.6,3.6,,70.3,-157,16,20,1015.6,67.2,0
"2019-07-09 07:20:00+00",3.7,4.7,,70.2,-161,1,17,1015.5,67.2,0
"2019-07-09 07:25:00+00",3.8,3.8,,70.2,-163,-5,10,1015.49,67.2,0
"2019-07-09 07:30:00+00",5.0,6.0,,70.1,-218,-5,16,1015.61,67.5,0
"2019-07-09 07:35:00+00",5.0,5.0,,69.9,-222,16,19,1015.59,67.9,0
"2019-07-09 07:40:00+00",5.4,5.4,,69.9,-239,20,19,1015.56,68.2,0
"2019-07-09 07:45:00+00",5.3,5.3,,69.9,-229,56,21,1015.63,68.2,0
"2019-07-09 07:50:00+00",4.8,5.8,,69.8,-212,74,28,1015.67,68.3,0
"2019-07-09 07:55:00+00",6.0,7.0,,69.7,-246,100,22,1015.75,68.4,0
"2019-07-09 08:00:00+00",6.0,7.0,,69.8,-238,119,18,1015.83,68.2,0
"2019-07-09 08:05:00+00",6.8,7.8,,69.7,-267,145,26,1015.75,68.2,0
"2019-07-09 08:10:00+00",8.2,9.2,,69.3,-303,221,26,1015.83,68.3,0
"2019-07-09 08:15:00+00",9.3,10.3,,68.8,-312,276,28,1015.89,68.3,0
"2019-07-09 08:20:00+00",9.2,10.2,,68.5,-307,276,30,1015.86,68.1,0
"2019-07-09 08:25:00+00",8.9,9.9,,68.1,-324,240,27,1015.93,67.9,0
"2019-07-09 08:30:00+00",8.9,9.9,,67.9,-301,247,36,1016,67.7,0
"2019-07-09 08:35:00+00",9.9,9.9,,67.8,-319,302,36,1016.02,67.5,0
"2019-07-09 08:40:00+00",10.8,11.8,,67.5,-347,335,35,1015.98,67.2,0
"2019-07-09 08:45:00+00",10.8,11.8,,67.3,-355,319,31,1016.04,66.9,0
"2019-07-09 08:50:00+00",10.8,11.8,,67.2,-369,306,29,1016.08,66.8,0
"2019-07-09 08:55:00+00",8.0,9.0,,67.2,-267,226,34,1016.01,66.8,0
"2019-07-09 09:00:00+00",8.1,9.1,,67.1,-294,200,29,1016.09,66.6,0
"2019-07-09 09:05:00+00",7.1,8.1,,67.1,-283,144,22,1016.03,66.6,0
"2019-07-09 09:10:00+00",7.1,7.1,,67,-262,178,21,1015.99,66.4,0
"2019-07-09 09:15:00+00",7.0,7.0,,67.3,-263,173,25,1016.06,66.5,0
"2019-07-09 09:20:00+00",6.2,7.2,,67.5,-237,143,13,1016.14,66.5,0
"2019-07-09 09:25:00+00",6.3,7.3,,67.5,-203,189,26,1016.19,66.5,0
"2019-07-09 09:30:00+00",6.8,7.8,,67.4,-250,180,23,1016.12,66.4,0
"2019-07-09 09:35:00+00",8.3,9.3,,67,-279,238,25,1016.27,66.4,0
"2019-07-09 09:40:00+00",7.8,8.8,,66.7,-287,198,27,1016.33,66.3,0
"2019-07-09 09:45:00+00",7.1,8.1,,66.6,-218,227,24,1016.42,66.2,0
"2019-07-09 09:50:00+00",6.5,7.5,,66.6,-188,220,24,1016.48,66.1,0
"2019-07-09 09:55:00+00",4.4,4.4,,66.3,-68,170,7,1016.46,66,0
"2019-07-09 10:00:00+00",4.3,4.3,,66,-75,163,9,1016.52,65.7,0
"2019-07-09 10:05:00+00",4.2,5.2,,65.9,-78,159,7,1016.46,65.5,0
"2019-07-09 10:10:00+00",4.3,4.3,,66.1,-113,146,9,1016.55,65.3,0
"2019-07-09 10:15:00+00",4.2,5.2,,66.3,-135,126,8,1016.57,65.3,0
"2019-07-09 10:20:00+00",5.0,6.0,,66.6,-171,124,23,1016.68,65.5,0.3
"2019-07-09 10:25:00+00",4.1,4.1,,66.8,-109,136,10,1016.75,65.6,3.9
"2019-07-09 10:30:00+00",4.8,4.8,,66.9,-160,144,12,1016.84,65.8,9.1
"2019-07-09 10:35:00+00",5.9,6.9,,67.3,-163,205,11,1016.79,66,15.2
"2019-07-09 10:40:00+00",4.3,5.3,,67.4,-112,153,9,1016.81,66.3,21
"2019-07-09 10:45:00+00",7.9,8.9,,67.6,-311,186,38,1016.82,66.7,29.9
"2019-07-09 10:50:00+00",7.6,8.6,,67.5,-262,217,32,1016.85,67.1,35.3
"2019-07-09 10:55:00+00",8.3,9.3,,67.4,-282,238,30,1017.01,67.4,41.1
"2019-07-09 11:00:00+00",9.5,10.5,,67.5,-337,257,30,1016.95,67.6,45.7
"2019-07-09 11:05:00+00",7.1,8.1,,67.5,-256,192,37,1016.95,67.9,51.6
"2019-07-09 11:10:00+00",8.0,9.0,,67.7,-305,197,27,1016.94,68.2,49.7
"2019-07-09 11:15:00+00",7.5,8.5,,67.9,-276,188,31,1016.96,68.5,64.4
"2019-07-09 11:20:00+00",9.7,10.7,,68.1,-349,256,27,1017.06,68.6,74.2
"2019-07-09 11:25:00+00",10.5,11.5,,68.2,-384,283,31,1017.07,68.8,85.4
"2019-07-09 11:30:00+00",8.9,9.9,,68.3,-324,219,15,1017.13,69.1,92.5
"2019-07-09 11:35:00+00",9.2,10.2,,68.5,-307,274,43,1017.26,69.4,106.4
"2019-07-09 11:40:00+00",10.0,12.0,,68.7,-353,288,36,1017.26,69.6,114.5
"2019-07-09 11:45:00+00",12.5,14.5,,68.7,-425,356,33,1017.3,69.8,127.8
"2019-07-09 11:50:00+00",12.3,13.3,,68.9,-410,356,36,1017.21,70,140.8
"2019-07-09 11:55:00+00",12.1,14.1,,69.2,-447,311,50,1017.29,70.3,150.7
"2019-07-09 12:00:00+00",12.0,13.0,,69.5,-427,334,46,1017.26,70.7,161.6
"2019-07-09 12:05:00+00",13.9,14.9,,69.8,-488,383,31,1017.26,71,169.5
"2019-07-09 12:10:00+00",13.3,15.3,,70,-476,358,28,1017.22,71.3,180.8
"2019-07-09 12:15:00+00",12.6,13.6,,70.2,-444,357,38,1017.22,71.6,192
"2019-07-09 12:20:00+00",12.5,14.5,,70.6,-430,363,44,1017.24,72,193.5
"2019-07-09 12:25:00+00",13.5,15.5,,71,-483,390,35,1017.25,72.4,199.3
"2019-07-09 12:30:00+00",15.1,17.1,,71.3,-506,438,42,1017.3,72.7,213.1
"2019-07-09 12:35:00+00",11.2,13.2,,71.8,-367,326,46,1017.37,73,222.8
"2019-07-09 12:40:00+00",11.7,12.7,,72.2,-353,365,41,1017.39,73.5,229.7
"2019-07-09 12:45:00+00",12.7,14.7,,72.7,-436,362,56,1017.42,74,237.5
"2019-07-09 12:50:00+00",13.3,14.3,,72.9,-452,394,42,1017.43,74.5,250.7
"2019-07-09 12:55:00+00",13.1,15.1,,73.4,-383,438,44,1017.47,74.9,256.6
"2019-07-09 13:00:00+00",13.7,15.7,,73.5,-385,461,26,1017.53,75.1,248.8
"2019-07-09 13:05:00+00",14.8,16.8,,73.6,-469,458,40,1017.57,75.3,272.1
"2019-07-09 13:10:00+00",13.5,15.5,,73.8,-430,427,35,1017.51,75.6,285.3
"2019-07-09 13:15:00+00",12.7,14.7,,74.1,-428,364,23,1017.58,75.8,274.4
"2019-07-09 13:20:00+00",12.3,14.3,,74.4,-411,373,27,1017.47,76.3,298.3
"2019-07-09 13:25:00+00",11.9,13.9,,74.5,-400,367,32,1017.46,76.6,302.5
"2019-07-09 13:30:00+00",13.2,14.2,,74.7,-442,390,29,1017.34,76.9,315.4
"2019-07-09 13:35:00+00",10.1,12.1,,75.1,-374,275,32,1017.4,77.2,324
"2019-07-09 13:40:00+00",11.7,12.7,,75.2,-378,350,31,1017.34,77.4,330.3
"2019-07-09 13:45:00+00",11.7,12.7,,75.4,-400,342,36,1017.4,77.6,339.9
"2019-07-09 13:50:00+00",10.8,11.8,,75.9,-385,286,26,1017.38,78,350.9
"2019-07-09 13:55:00+00",9.4,10.4,,76.1,-337,252,52,1017.34,78.5,358.1
"2019-07-09 14:00:00+00",9.3,11.3,,76.2,-336,243,21,1017.26,78.9,361.2
"2019-07-09 14:05:00+00",9.8,10.8,,76.2,-339,274,21,1017.25,79.1,367.5
"2019-07-09 14:10:00+00",6.4,7.4,,76.3,-208,178,18,1017.3,79.4,373.9
"2019-07-09 14:15:00+00",6.1,7.1,,76.4,-232,146,32,1017.42,80,378.5
"2019-07-09 14:20:00+00",8.6,10.6,,76.7,-356,145,14,1017.32,80.7,383.8
"2019-07-09 14:25:00+00",7.4,8.4,,76.6,-283,166,11,1017.33,81,384.2
"2019-07-09 14:30:00+00",7.6,8.6,,76.7,-323,112,30,1017.3,81.1,392
"2019-07-09 14:35:00+00",6.5,7.5,,77.2,-231,166,42,1017.34,81.3,397.8
"2019-07-09 14:40:00+00",5.6,7.6,,77.5,-218,103,56,1017.28,81.7,407.6
"2019-07-09 14:45:00+00",6.0,7.0,,77.5,-236,103,38,1017.35,82.1,421.3
"2019-07-09 14:50:00+00",6.1,7.1,,77.5,-264,42,42,1017.39,82.7,421.4
"2019-07-09 14:55:00+00",5.9,6.9,,77.7,-265,44,9,1017.44,83.5,424.3
"2019-07-09 15:00:00+00",5.6,7.6,,77.9,-228,56,12,1017.4,84.2,434.5
"2019-07-09 15:05:00+00",6.1,7.1,,77.9,-260,-34,-5,1017.49,85,439.6
"2019-07-09 15:10:00+00",6.4,8.4,,77.9,-266,62,10,1017.54,85.2,442.6
"2019-07-09 15:15:00+00",4.1,5.1,,78,-176,-9,9,1017.52,85,448.9
"2019-07-09 15:20:00+00",7.2,8.2,,78.2,-306,-126,17,1017.46,85.4,452.4
"2019-07-09 15:25:00+00",5.5,7.5,,78.5,-195,-51,39,1017.48,85.8,452.4
"2019-07-09 15:30:00+00",7.1,8.1,,78.5,-281,-138,34,1017.47,85.8,459.5
"2019-07-09 15:35:00+00",5.3,6.3,,78.7,-201,-130,10,1017.48,86.4,463.8
"2019-07-09 15:40:00+00",6.5,8.5,,78.9,-267,-75,-3,1017.5,86.4,468.6
"2019-07-09 15:45:00+00",4.3,8.3,,79,-175,-81,13,1017.49,86.4,473.5
"2019-07-09 15:50:00+00",5.5,7.5,,78.9,-226,-104,-14,1017.6,85.8,483.8
"2019-07-09 15:55:00+00",6.0,7.0,,79.1,-249,-58,39,1017.61,86.2,487.4
"2019-07-09 16:00:00+00",4.8,5.8,,79.2,-201,8,5,1017.66,86.5,490.3
"2019-07-09 16:05:00+00",4.6,6.6,,79.4,-183,31,27,1017.61,86.9,486.1
"2019-07-09 16:10:00+00",3.9,6.9,,79.8,-148,-91,25,1017.62,87.2,482.8
"2019-07-09 16:15:00+00",7.9,9.9,,80.1,-152,-317,1,1017.62,86.9,480.2
"2019-07-09 16:20:00+00",6.5,9.5,,80.3,-40,-248,47,1017.63,85.1,482.5
"2019-07-09 16:25:00+00",9.5,11.5,,79.2,33,-400,-6,1017.68,82.4,487.2
"2019-07-09 16:30:00+00",10.8,11.8,,78.5,40,-462,-32,1017.79,81,491
"2019-07-09 16:35:00+00",8.9,11.9,,78.8,40,-366,13,1017.86,81.1,483.1
"2019-07-09 16:40:00+00",11.4,14.4,,78.5,57,-484,-21,1017.83,80.7,492.3
"2019-07-09 16:45:00+00",13.3,15.3,,77.9,86,-572,-40,1017.85,80.1,493.9
"2019-07-09 16:50:00+00",10.7,12.7,,78,87,-455,-1,1017.86,80.2,496.4
"2019-07-09 16:55:00+00",12.6,15.6,,77.7,95,-528,-19,1017.88,80,439.9
"2019-07-09 17:00:00+00",11.6,13.6,,77.7,69,-499,-3,1017.89,79.9,498.4
"2019-07-09 17:05:00+00",11.8,15.8,,77.5,88,-493,4,1017.86,79.7,467
"2019-07-09 17:10:00+00",14.0,18.0,,77.1,120,-576,-19,1017.93,79.4,490.1
"2019-07-09 17:15:00+00",12.6,15.6,,77.4,70,-527,-6,1017.85,79.3,448.5
"2019-07-09 17:20:00+00",14.3,16.3,,77.6,56,-604,-29,1017.85,79.4,487.3
"2019-07-09 17:25:00+00",11.8,15.8,,77.7,74,-487,-12,1017.87,79.7,482.7
"2019-07-09 17:30:00+00",12.9,14.9,,77.8,96,-551,-14,1017.77,79.8,480.2
"2019-07-09 17:35:00+00",13.0,15.0,,77.8,84,-547,-16,1017.77,79.9,490
"2019-07-09 17:40:00+00",13.8,15.8,,77.8,59,-587,-26,1017.75,79.7,484.8
"2019-07-09 17:45:00+00",12.5,14.5,,77.9,56,-533,-29,1017.79,79.5,483.8
"2019-07-09 17:50:00+00",8.7,11.7,,78.6,27,-363,15,1017.81,80.3,487.6
"2019-07-09 17:55:00+00",12.2,15.2,,78.3,67,-523,-19,1017.73,80.2,435.4
"2019-07-09 18:00:00+00",9.3,12.3,,78.3,48,-403,12,1017.72,79.9,486
"2019-07-09 18:05:00+00",11.0,15.0,,78.4,87,-455,17,1017.64,80.1,468
"2019-07-09 18:10:00+00",11.7,15.7,,78.3,41,-485,13,1017.51,80.1,465
"2019-07-09 18:15:00+00",13.3,16.3,,78.2,57,-565,-25,1017.4,79.9,458.2
"2019-07-09 18:20:00+00",13.8,16.8,,78.1,76,-587,-28,1017.37,79.7,455.4
"2019-07-09 18:25:00+00",14.2,17.2,,78.2,34,-591,-37,1017.3,79.7,453.3
"2019-07-09 18:30:00+00",11.4,15.4,,78.8,5,-469,-7,1017.43,80.2,446.9
"2019-07-09 18:35:00+00",13.5,16.5,,79,16,-566,-12,1017.35,80.5,441.1
"2019-07-09 18:40:00+00",9.3,13.3,,79.3,-90,-390,18,1017.45,80.8,334
"2019-07-09 18:45:00+00",12.5,16.5,,79.2,-26,-526,-10,1017.36,80.6,268.5
"2019-07-09 18:50:00+00",13.9,16.9,,79.2,-272,-550,15,1017.25,80.7,429.7
"2019-07-09 18:55:00+00",11.3,16.3,,78.9,-143,-464,-1,1017.23,80.8,407.1
"2019-07-09 19:00:00+00",12.9,14.9,,79.1,-287,-494,12,1017.33,80.9,423.4
"2019-07-09 19:05:00+00",13.0,16.0,,79.2,-228,-513,1,1017.17,81,412.5
"2019-07-09 19:10:00+00",13.9,16.9,,79.1,-203,-560,-13,1017.19,80.8,402.8
"2019-07-09 19:15:00+00",13.0,18.0,,79.5,-151,-527,5,1017.16,81.2,396
"2019-07-09 19:20:00+00",12.9,16.9,,79.6,-141,-534,-2,1017.14,81.2,385.7
"2019-07-09 19:25:00+00",14.5,16.5,,79.5,-156,-608,-6,1017.08,81.3,368.7
"2019-07-09 19:30:00+00",10.7,16.7,,79.6,-162,-430,26,1017.02,81.3,362.8
"2019-07-09 19:35:00+00",13.7,16.7,,79.2,-207,-550,-19,1016.91,80.9,360.5
"2019-07-09 19:40:00+00",13.4,15.4,,79,-315,-509,9,1016.89,81,349.7
"2019-07-09 19:45:00+00",14.1,17.1,,79.1,-252,-561,1,1016.9,81.2,338.1
"2019-07-09 19:50:00+00",14.7,16.7,,78.8,-271,-574,-16,1016.93,80.8,322.5
"2019-07-09 19:55:00+00",13.7,16.7,,79,-255,-530,-13,1016.95,80.9,318.2
"2019-07-09 20:00:00+00",14.7,16.7,,79.1,-213,-601,-34,1016.99,80.7,313.2
"2019-07-09 20:05:00+00",13.9,16.9,,79,-275,-531,-7,1016.95,80.7,308.1
"2019-07-09 20:10:00+00",14.5,15.5,,79.2,-293,-551,-18,1017.02,80.8,300.2
"2019-07-09 20:15:00+00",13.8,15.8,,79.2,-307,-519,-18,1016.91,80.8,301
"2019-07-09 20:20:00+00",13.5,16.5,,79.2,-223,-537,-12,1016.76,80.9,289.8
"2019-07-09 20:25:00+00",14.2,17.2,,79.3,-257,-556,-13,1016.81,80.9,282.1
"2019-07-09 20:30:00+00",12.5,15.5,,79.3,-127,-518,-11,1016.65,80.8,283.8
"2019-07-09 20:35:00+00",13.0,16.0,,79.4,-198,-528,-13,1016.67,80.9,269.4
"2019-07-09 20:40:00+00",11.7,16.7,,79.5,-172,-472,7,1016.51,80.9,105
"2019-07-09 20:45:00+00",13.5,17.5,,79.4,-161,-570,-6,1016.65,80.8,71.2
"2019-07-09 20:50:00+00",13.1,17.1,,79.1,-182,-536,-5,1016.63,80.5,69.4
"2019-07-09 20:55:00+00",12.9,15.9,,79.2,-164,-533,1,1016.56,80.5,66.9
"2019-07-09 21:00:00+00",13.4,17.4,,79.2,-164,-549,6,1016.5,80.6,62.9
"2019-07-09 21:05:00+00",11.2,15.2,,79.1,-161,-437,23,1016.41,80.4,217.2
"2019-07-09 21:10:00+00",13.4,16.4,,79.1,-247,-531,-1,1016.55,80.3,213.9
"2019-07-09 21:15:00+00",13.5,15.5,,79.2,-257,-531,7,1016.61,80.6,208.7
"2019-07-09 21:20:00+00",14.9,16.9,,78.9,-274,-588,-6,1016.6,80.4,57.8
"2019-07-09 21:25:00+00",12.4,16.4,,78.7,-214,-502,12,1016.57,80.1,171.6
"2019-07-09 21:30:00+00",12.5,16.5,,78.7,-103,-509,-14,1016.54,80,179.6
"2019-07-09 21:35:00+00",16.4,18.4,,78.2,-401,-618,-7,1016.46,79.8,169.2
"2019-07-09 21:40:00+00",12.1,15.1,,78.5,-186,-497,10,1016.48,79.7,163.9
"2019-07-09 21:45:00+00",13.4,15.4,,78.2,-307,-520,23,1016.58,79.5,158.4
"2019-07-09 21:50:00+00",16.5,19.5,,78.2,-236,-676,-9,1016.51,79.3,152.6
"2019-07-09 21:55:00+00",14.2,18.2,,78.3,-180,-592,11,1016.56,79.2,140
"2019-07-09 22:00:00+00",14.6,18.6,,78.1,-348,-543,2,1016.6,79.3,135.6
"2019-07-09 22:05:00+00",16.2,18.2,,78.1,-305,-631,-11,1016.66,79.1,126.6
"2019-07-09 22:10:00+00",15.4,19.4,,77.9,-253,-603,-14,1016.65,78.9,117.4
"2019-07-09 22:15:00+00",12.5,16.5,,77.9,-226,-498,5,1016.75,78.8,112.6
"2019-07-09 22:20:00+00",17.6,19.6,,77.8,-364,-673,-21,1016.75,78.6,104.4
"2019-07-09 22:25:00+00",14.3,16.3,,77.7,-307,-559,1,1016.61,78.4,83.3
"2019-07-09 22:30:00+00",17.1,18.1,,77.6,-357,-658,-7,1016.64,78.3,85.5
"2019-07-09 22:35:00+00",16.3,19.3,,77.5,-314,-636,-6,1016.63,78.1,76.9
"2019-07-09 22:40:00+00",16.9,20.9,,77.3,-323,-650,-26,1016.72,77.8,70.3
"2019-07-09 22:45:00+00",14.0,17.0,,77.3,-246,-563,-4,1016.69,77.7,61.7
"2019-07-09 22:50:00+00",15.4,17.4,,77.2,-321,-588,-5,1016.68,77.6,54.3
"2019-07-09 22:55:00+00",16.1,18.1,,77.1,-343,-617,-8,1016.73,77.5,44.9
"2019-07-09 23:00:00+00",14.6,17.6,,77,-261,-576,-11,1016.75,77.3,38.3
"2019-07-09 23:05:00+00",13.3,16.3,,77,-245,-518,-17,1016.7,77.3,32.2
"2019-07-09 23:10:00+00",14.5,17.5,,76.9,-267,-568,6,1016.71,77.1,25.4
"2019-07-09 23:15:00+00",13.6,15.6,,76.8,-331,-507,-13,1016.73,77.1,19.5
"2019-07-09 23:20:00+00",14.5,15.5,,76.7,-291,-555,-9,1016.73,76.8,13.9
"2019-07-09 23:25:00+00",12.2,14.2,,76.6,-260,-468,13,1016.77,76.7,7.1
"2019-07-09 23:30:00+00",11.4,14.4,,76.6,-240,-433,-2,1016.77,76.6,4.8
"2019-07-09 23:35:00+00",12.6,14.6,,76.6,-261,-488,-1,1016.83,76.5,0.9
"2019-07-09 23:40:00+00",12.4,14.4,,76.6,-337,-448,5,1016.79,76.5,0
"2019-07-09 23:45:00+00",12.1,14.1,,76.6,-311,-441,-4,1016.83,76.4,0
"2019-07-09 23:50:00+00",12.9,14.9,,76.6,-326,-480,7,1016.84,76.3,0
"2019-07-09 23:55:00+00",15.0,18.0,,76.5,-387,-548,-17,1016.76,76.2,0
